Wind_Speed
10 12 13 13 12 14 15 15 15 16 17 17 16 15 15 14 14 14 13 13 12 11 12 11 11 10 9 8 6 5 4 3 2 2 1 1 2 3 3 4 5 6 7 7
9 11 12 12 13 13 14 14 14 15 15 16 16 15 15 13 13 14 14 14 12 12 11 11 11 10 9 8 7 5 4 4 3 3 2 2 2 3 3 4 5 6 7 7
8 10 11 11 12 13 12 14 14 14 13 13 13 14 14 13 14 14 14 14 13 12 11 11 11 10 9 8 7 6 5 5 4 3 3 2 3 3 4 4 5 6 7 8
8 9 10 11 12 12 12 13 14 14 14 13 13 13 13 13 14 14 14 14 13 12 12 11 11 10 9 8 8 7 6 5 5 4 4 3 3 3 4 5 5 6 7 8
8 9 10 11 12 12 11 12 12 12 13 13 13 13 14 14 14 14 14 14 13 12 12 12 11 10 10 9 8 7 7 6 6 5 5 4 4 4 5 5 5 6 7 8
7 9 9 10 11 12 12 11 11 12 12 12 12 12 13 13 13 14 14 14 13 12 12 12 11 10 10 10 9 9 8 7 7 6 6 5 5 5 5 6 6 7 7 8
6 8 9 10 10 11 12 11 11 11 11 10 11 12 11 13 13 13 13 13 13 12 12 12 12 11 11 10 10 10 9 9 8 8 7 6 6 7 7 7 7 7 8 8
6 8 9 9 9 10 11 11 11 10 9 9 10 11 11 12 13 13 13 13 12 12 12 12 12 11 11 11 11 11 10 10 9 9 9 8 8 8 9 9 9 9 9 9
5 7 8 8 8 9 9 10 10 10 9 9 9 9 10 10 12 12 12 12 12 12 13 12 12 12 13 12 12 12 11 11 11 11 10 10 10 10 10 10 10 10 10 10
6 7 7 8 8 8 7 8 9 9 10 10 9 9 10 10 11 11 12 12 12 13 13 13 13 13 13 14 13 13 12 12 12 12 11 12 12 12 12 12 12 12 12 12
7 7 8 8 8 8 8 8 8 8 9 9 9 9 10 10 10 10 11 12 12 12 13 13 13 13 13 14 14 13 13 13 13 12 12 13 13 13 13 13 13 13 13 13
6 7 7 8 9 8 8 8 9 9 9 8 8 8 10 11 11 10 10 11 12 12 12 13 13 13 14 14 14 14 14 14 14 14 14 14 14 15 15 15 15 15 15 14
5 7 7 7 8 8 8 8 9 10 10 9 9 9 10 10 11 11 11 11 12 12 12 13 14 14 14 14 14 14 15 15 15 15 15 15 16 16 15 16 16 16 16 16
6 7 7 7 8 9 9 9 9 10 10 10 10 10 10 11 12 12 12 12 12 12 13 14 14 14 15 15 15 15 15 16 16 16 16 16 16 16 16 17 17 17 17 18
8 8 8 8 7 8 8 8 9 10 10 10 10 11 11 12 12 13 13 13 13 14 14 15 15 16 15 16 15 16 16 17 17 17 17 17 17 17 18 18 18 18 19 19
9 9 9 8 8 9 9 9 9 10 11 11 11 11 12 13 13 13 13 13 14 14 15 15 15 16 16 16 16 16 17 18 17 18 18 19 19 18 18 18 19 19 20 20
11 11 10 10 10 10 10 10 11 11 11 12 12 12 13 13 13 14 15 15 15 15 15 15 15 16 16 17 17 17 18 18 19 19 19 19 20 20 20 20 21 21 21 21
12 12 12 12 12 12 10 12 12 12 12 13 12 13 14 14 15 16 16 16 16 16 16 17 17 17 18 18 18 19 19 20 20 21 21 21 22 22 22 22 22 22 23 23
14 14 14 14 14 13 12 13 14 14 13 14 14 14 15 16 17 17 18 18 18 18 18 18 19 19 19 19 20 20 20 21 22 22 22 23 23 23 23 23 23 24 24 25
16 16 16 16 15 14 13 14 15 15 15 15 16 16 16 17 17 18 18 18 19 19 20 20 20 20 21 21 21 22 22 22 22 23 23 24 24 24 24 25 25 26 27 27
18 18 18 17 17 15 14 15 16 16 16 16 17 17 18 18 19 19 20 20 20 21 21 22 22 22 22 22 23 23 23 23 23 24 24 25 25 25 26 26 27 28 28 28
20 20 20 20 19 16 16 17 17 18 18 18 19 19 20 20 21 21 21 22 22 22 22 23 23 23 23 23 23 23 24 24 25 25 25 25 26 27 27 28 29 29 30 30
22 21 22 22 21 20 20 19 19 20 20 20 21 21 22 22 22 23 23 23 23 24 24 24 24 24 24 24 25 25 26 26 26 26 27 27 28 29 30 30 31 31 32 32
24 24 24 24 23 23 22 22 22 22 22 22 23 23 24 24 24 25 25 26 25 25 25 26 26 26 26 26 27 27 28 28 29 29 29 30 30 31 32 32 33 33 34 34
24 25 26 26 25 25 25 25 24 24 24 24 25 25 26 26 26 27 27 26 26 27 27 27 28 28 28 28 28 28 29 29 30 30 31 31 32 32 33 34 35 35 36 36
24 25 26 26 26 27 26 26 26 26 26 27 27 27 27 27 27 28 28 29 29 29 29 29 29 29 29 29 29 29 30 30 31 31 32 33 33 34 35 35 36 37 38 38
Wind_Direction
185 190 193 191 195 196 195 196 199 201 204 201 198 199 200 200 202 202 202 202 198 199 194 194 197 198 198 200 204 212 223 225 228 239 247 268 310 329 338 346 347 350 353 358
181 188 189 188 189 190 191 192 196 197 201 203 203 203 202 204 202 199 200 200 198 198 197 198 196 195 197 201 209 215 222 225 228 235 247 272 294 310 326 339 344 347 350 355
178 181 185 185 186 185 187 191 188 190 195 202 204 204 203 203 202 200 200 198 199 199 199 199 201 200 204 208 215 218 225 226 227 234 248 272 286 296 311 323 332 339 345 349
160 165 171 175 177 176 180 184 184 190 195 200 204 206 204 204 201 199 200 199 201 200 202 205 209 210 210 212 217 219 222 228 233 239 249 269 286 292 301 311 322 333 340 343
138 149 160 165 169 169 171 180 184 189 196 200 204 207 204 204 204 203 202 202 202 204 208 211 212 214 214 215 219 221 223 231 238 242 249 266 280 291 295 302 311 323 331 336
140 148 159 162 167 170 173 179 185 188 193 201 202 202 199 202 204 204 205 205 206 210 212 214 216 219 218 220 223 226 229 235 241 247 254 263 276 287 294 299 304 312 317 325
144 150 157 160 165 169 176 179 183 187 195 200 199 203 203 205 206 208 209 210 212 214 215 217 218 222 226 227 227 230 234 238 244 251 256 262 271 280 291 298 301 306 309 314
153 155 158 162 165 169 178 186 192 196 202 204 202 203 204 209 209 211 213 214 218 220 222 224 224 227 231 231 232 235 238 242 248 253 255 260 269 277 285 292 296 303 307 310
170 174 171 173 173 177 181 194 202 208 211 210 208 207 211 216 216 217 219 221 225 225 226 229 230 231 233 235 236 240 243 248 252 254 256 262 270 276 283 288 293 299 303 305
191 193 192 186 187 189 196 202 206 215 216 215 212 214 217 220 219 221 221 223 229 231 233 235 236 234 235 237 239 242 247 251 254 256 259 266 271 275 280 284 289 294 298 300
198 197 199 200 203 206 207 207 211 216 219 218 216 217 221 224 224 223 224 229 234 234 236 238 239 237 238 240 242 246 250 253 255 258 263 268 272 277 280 282 287 292 294 296
201 201 205 208 210 216 221 219 220 222 222 223 226 218 221 223 223 225 229 232 234 236 241 242 239 239 242 245 249 250 252 254 257 261 265 268 273 278 280 281 284 288 290 292
217 212 216 221 223 227 232 231 230 230 232 232 226 216 224 226 228 232 235 236 237 239 245 246 245 244 246 249 252 256 256 257 260 262 265 269 274 277 279 281 283 285 287 289
233 231 229 234 237 234 233 234 235 233 235 231 225 227 228 234 237 238 239 241 243 245 249 249 248 248 250 253 257 260 260 262 264 265 268 271 273 278 280 282 283 284 285 288
240 239 238 241 244 239 239 239 241 241 243 241 238 238 238 240 241 245 246 246 249 251 252 252 253 253 256 259 262 264 264 265 267 268 270 273 273 277 280 281 281 282 284 286
244 245 241 242 248 243 238 245 248 248 248 246 245 243 244 245 246 246 247 250 253 256 257 258 258 257 258 261 263 264 266 268 271 272 272 274 275 277 279 281 282 282 284 286
247 248 248 248 248 249 248 250 253 255 254 251 250 250 251 251 251 251 253 256 258 259 260 261 260 260 262 264 265 266 266 268 271 273 274 275 275 277 279 281 281 281 283 284
254 254 254 255 253 251 253 258 258 259 259 259 258 256 257 255 253 255 257 259 260 259 260 262 263 263 264 265 266 267 268 270 271 273 275 276 276 277 278 281 282 282 283 284
254 257 259 260 258 257 257 261 262 262 262 263 262 258 257 257 257 258 258 260 261 261 262 264 266 266 265 267 268 269 270 271 272 273 275 276 276 278 279 280 281 282 283 285
254 256 260 263 263 261 261 263 264 265 266 265 262 260 259 259 261 261 262 263 263 264 264 265 267 268 267 268 269 270 271 271 272 273 274 276 276 277 278 279 280 282 284 284
255 257 260 262 264 264 266 267 268 268 267 265 264 263 262 262 263 264 265 265 266 267 268 268 269 270 270 270 270 272 272 272 273 274 275 276 277 277 279 280 281 282 284 285
254 257 258 260 262 265 264 266 267 268 268 267 264 264 264 265 266 266 266 268 269 270 270 270 270 270 270 271 271 272 273 273 273 275 276 277 278 279 281 282 283 283 285 286
255 256 259 259 261 263 263 265 267 268 269 268 265 265 266 267 267 267 268 269 270 271 271 270 270 270 271 271 271 271 272 273 274 275 277 278 279 280 281 282 283 283 284 286
256 258 259 260 261 263 263 263 265 268 269 269 268 267 268 268 268 268 269 271 272 273 272 271 270 270 271 271 272 272 272 274 274 275 277 278 280 281 282 282 283 283 284 286
257 259 260 261 262 262 262 264 266 268 269 270 271 270 269 270 270 270 271 272 273 273 273 272 271 270 271 272 273 273 274 275 276 277 278 279 280 282 282 283 284 284 285 287
258 259 260 262 262 262 262 262 265 267 269 271 273 274 273 272 272 272 272 273 273 273 273 273 271 270 271 272 273 274 275 276 277 277 278 280 280 281 283 283 284 285 286 287
Height
5827 5830 5832 5834 5837 5841 5844 5847 5850 5854 5856 5859 5861 5865 5867 5870 5872 5874 5876 5878 5880 5881 5884 5885 5887 5888 5889 5891 5892 5893 5893 5894 5894 5894 5895 5895 5894 5894 5893 5892 5891 5890 5889 5887
5828 5830 5832 5834 5837 5840 5843 5847 5850 5852 5855 5858 5860 5863 5866 5868 5871 5873 5875 5877 5879 5880 5882 5884 5886 5887 5889 5890 5891 5892 5892 5893 5893 5894 5894 5894 5894 5893 5893 5892 5891 5890 5888 5887
5829 5831 5833 5835 5838 5840 5843 5847 5849 5852 5855 5857 5860 5863 5866 5868 5870 5872 5874 5876 5878 5880 5881 5883 5885 5886 5888 5889 5890 5891 5892 5892 5893 5893 5893 5893 5893 5892 5892 5891 5890 5889 5888 5886
5829 5831 5833 5836 5838 5841 5844 5846 5849 5852 5855 5857 5860 5863 5865 5867 5869 5871 5873 5875 5877 5878 5880 5882 5884 5885 5886 5888 5889 5890 5891 5891 5892 5892 5892 5892 5892 5892 5891 5890 5890 5889 5887 5886
5831 5832 5834 5837 5839 5842 5844 5847 5849 5852 5854 5857 5859 5862 5865 5866 5868 5870 5872 5874 5876 5878 5879 5881 5882 5884 5885 5886 5887 5888 5889 5890 5890 5891 5891 5891 5891 5890 5890 5889 5888 5888 5887 5885
5833 5834 5836 5838 5840 5842 5845 5848 5850 5852 5854 5857 5859 5861 5864 5865 5867 5869 5871 5873 5875 5877 5878 5880 5881 5882 5883 5884 5886 5887 5888 5888 5889 5889 5889 5890 5890 5889 5889 5888 5887 5886 5885 5884
5835 5836 5838 5840 5841 5843 5846 5849 5851 5852 5854 5856 5858 5860 5863 5864 5866 5868 5870 5872 5874 5875 5877 5878 5879 5881 5882 5883 5884 5885 5886 5886 5887 5887 5888 5888 5888 5888 5887 5887 5886 5885 5884 5883
5837 5838 5840 5841 5843 5844 5846 5849 5852 5853 5854 5856 5857 5859 5863 5863 5865 5866 5868 5870 5872 5874 5875 5877 5878 5879 5880 5881 5882 5883 5884 5884 5885 5885 5886 5886 5886 5886 5885 5885 5884 5883 5882 5881
5838 5840 5841 5842 5843 5845 5846 5848 5851 5853 5854 5856 5857 5859 5861 5862 5864 5865 5867 5869 5871 5872 5874 5875 5876 5877 5878 5879 5880 5881 5882 5882 5883 5883 5884 5884 5884 5884 5883 5883 5882 5881 5880 5879
5839 5841 5842 5843 5844 5846 5848 5849 5851 5852 5853 5855 5857 5859 5861 5861 5863 5864 5866 5868 5869 5871 5872 5873 5874 5875 5876 5877 5877 5878 5879 5880 5880 5881 5881 5881 5881 5881 5880 5880 5879 5879 5878 5877
5839 5841 5842 5843 5845 5846 5848 5849 5850 5851 5853 5855 5856 5860 5859 5860 5861 5863 5864 5866 5867 5868 5870 5870 5871 5872 5873 5874 5875 5876 5876 5877 5877 5878 5878 5878 5878 5878 5877 5877 5876 5876 5875 5874
5839 5841 5842 5843 5844 5845 5847 5848 5849 5851 5852 5854 5855 5860 5858 5859 5860 5861 5862 5864 5865 5866 5867 5868 5868 5869 5870 5871 5872 5872 5873 5874 5874 5874 5874 5874 5874 5874 5874 5873 5873 5872 5872 5871
5839 5841 5842 5843 5846 5846 5846 5847 5848 5849 5851 5852 5854 5858 5856 5857 5858 5859 5860 5861 5862 5863 5864 5865 5866 5867 5867 5868 5869 5869 5870 5870 5870 5871 5871 5871 5871 5870 5870 5870 5869 5869 5868 5867
5839 5840 5842 5843 5843 5843 5844 5846 5846 5848 5849 5850 5852 5854 5855 5855 5856 5857 5858 5859 5860 5861 5862 5862 5863 5864 5864 5865 5865 5866 5866 5866 5867 5867 5867 5867 5867 5866 5866 5866 5865 5865 5864 5863
5838 5839 5839 5840 5841 5842 5843 5844 5845 5846 5847 5849 5850 5851 5852 5853 5854 5855 5856 5857 5858 5858 5859 5859 5860 5860 5861 5861 5862 5862 5862 5862 5862 5862 5862 5863 5862 5862 5862 5861 5861 5860 5860 5859
5837 5838 5838 5839 5839 5840 5842 5842 5843 5844 5845 5846 5847 5849 5849 5850 5851 5852 5853 5854 5855 5855 5856 5856 5856 5857 5857 5857 5857 5858 5858 5858 5858 5858 5858 5858 5858 5857 5857 5856 5856 5855 5855 5854
5835 5836 5837 5838 5838 5838 5840 5841 5841 5842 5843 5844 5845 5846 5846 5847 5848 5848 5849 5850 5851 5851 5852 5852 5852 5852 5853 5853 5853 5853 5853 5853 5853 5853 5853 5853 5853 5853 5852 5851 5851 5850 5849 5848
5832 5833 5834 5835 5836 5837 5840 5838 5839 5839 5840 5840 5841 5842 5842 5843 5844 5845 5845 5846 5846 5847 5847 5848 5848 5848 5848 5848 5848 5848 5848 5848 5848 5848 5848 5848 5848 5847 5847 5846 5845 5844 5843 5842
5829 5830 5831 5831 5832 5833 5836 5835 5835 5836 5837 5837 5837 5838 5838 5839 5840 5840 5841 5841 5842 5842 5843 5843 5843 5843 5843 5843 5844 5844 5843 5843 5843 5843 5843 5842 5842 5841 5841 5840 5839 5838 5837 5836
5826 5827 5828 5828 5828 5830 5833 5832 5831 5833 5833 5834 5833 5834 5834 5834 5835 5836 5836 5836 5837 5837 5837 5838 5838 5838 5838 5838 5838 5838 5838 5837 5837 5837 5837 5836 5836 5835 5834 5834 5833 5831 5830 5829
5822 5823 5823 5824 5824 5826 5828 5827 5828 5830 5830 5829 5829 5829 5830 5830 5831 5831 5831 5831 5831 5832 5832 5832 5832 5832 5832 5832 5832 5832 5832 5832 5831 5831 5830 5830 5829 5828 5827 5827 5826 5824 5823 5822
5817 5818 5819 5819 5820 5824 5823 5823 5824 5824 5824 5824 5824 5824 5825 5826 5826 5826 5826 5826 5826 5826 5826 5826 5826 5826 5826 5826 5826 5826 5826 5825 5825 5824 5824 5823 5822 5821 5820 5819 5818 5817 5815 5814
5811 5813 5813 5815 5817 5818 5817 5818 5818 5818 5819 5819 5819 5819 5820 5820 5820 5820 5820 5820 5820 5819 5819 5819 5819 5819 5819 5819 5819 5819 5819 5818 5818 5817 5816 5816 5815 5814 5813 5811 5810 5808 5807 5805
5805 5806 5807 5808 5810 5811 5811 5812 5812 5812 5813 5813 5813 5813 5814 5814 5813 5813 5813 5813 5813 5812 5812 5812 5812 5812 5812 5812 5812 5812 5811 5811 5810 5809 5808 5808 5807 5805 5804 5803 5801 5800 5798 5796
5798 5799 5800 5801 5803 5804 5805 5805 5806 5806 5806 5806 5806 5806 5806 5806 5806 5806 5806 5806 5805 5805 5804 5804 5804 5804 5804 5804 5804 5803 5803 5803 5802 5801 5800 5799 5798 5796 5795 5793 5792 5790 5788 5786
5792 5792 5793 5794 5796 5796 5797 5798 5798 5799 5799 5799 5799 5799 5799 5799 5798 5798 5798 5797 5797 5797 5796 5796 5796 5795 5795 5795 5795 5795 5794 5794 5793 5792 5791 5790 5789 5787 5785 5784 5782 5779 5777 5775